Theta_e
317 314 313 315 316 315 314 315 315 312 312 313 315 313 314 314 314 311 315 315 316 317 317 317 316 313 313 313 315 313 314 316 315 317 317 318 319 320 319 319 318 317 316
316 314 314 313 313 314 312 312 314 312 312 312 313 315 313 314 313 310 316 315 316 316 316 317 317 316 316 314 313 313 313 315 316 316 318 319 319 319 318 317 318 317 316
318 316 315 313 312 313 313 314 315 315 315 311 313 315 313 313 310 313 315 315 315 315 316 317 317 317 316 316 315 314 314 313 315 316 316 317 318 318 318 317 317 315 314
317 317 315 313 312 312 313 313 313 315 314 312 315 315 313 313 310 314 314 315 315 314 315 315 316 315 316 317 317 314 314 313 312 313 311 315 315 315 314 315 315 315 315
315 316 314 314 312 313 312 312 314 315 314 316 316 313 314 313 311 313 314 312 315 315 314 313 311 312 312 314 317 316 316 315 314 312 315 316 315 316 316 316 316 317 317
313 314 315 314 313 313 315 312 314 315 314 315 315 315 314 312 310 310 313 315 312 314 314 315 314 312 312 312 312 313 315 316 315 315 316 317 317 318 318 318 318 318 317
313 313 315 314 313 313 315 315 314 315 315 315 315 315 312 314 310 310 312 312 311 314 311 314 315 313 312 315 312 311 311 312 314 317 317 317 316 319 318 318 319 317 315
312 312 314 315 312 311 314 314 315 315 315 316 315 314 314 313 310 309 311 313 311 311 311 311 311 315 311 312 315 316 316 316 315 316 318 318 318 318 318 317 316 315 313
312 312 313 314 312 312 314 316 316 316 315 315 316 315 314 312 310 310 311 313 312 311 312 312 311 314 311 311 311 313 315 314 311 311 311 310 309 309 312 312 312 311 312
311 312 312 314 313 313 312 314 313 317 316 315 316 314 314 314 312 311 311 312 313 313 313 312 309 310 311 311 311 310 310 311 311 312 311 310 308 307 309 312 313 312 313
310 311 312 312 312 312 312 312 312 313 316 316 316 316 316 315 316 313 311 313 313 313 313 313 313 310 311 311 310 312 310 308 305 307 310 311 313 312 313 310 313 313 313
310 311 311 312 313 313 312 312 313 312 314 316 316 316 315 316 314 313 313 314 313 313 313 312 314 311 310 311 311 311 310 307 309 310 311 312 312 313 314 314 312 312 313
307 309 310 311 311 311 313 313 312 312 314 314 316 315 315 315 316 314 313 312 312 312 313 313 313 308 307 310 310 311 311 311 310 310 311 311 310 312 312 311 310 308 308
306 305 308 310 309 310 311 311 311 311 312 315 316 316 316 315 316 316 315 312 310 311 311 311 311 310 307 308 310 307 307 311 312 312 311 311 311 311 311 310 310 311 312
305 305 307 307 308 309 310 310 308 307 308 310 313 315 316 315 315 315 316 315 314 313 314 314 313 311 311 309 309 309 309 310 310 311 312 313 313 313 312 312 311 311 311
305 305 305 305 307 308 309 310 310 308 307 308 312 314 314 314 314 315 313 313 313 311 311 314 313 312 312 312 311 311 309 308 309 311 312 313 313 313 313 312 313 312 312
302 303 303 304 305 306 307 308 310 310 308 308 308 312 313 314 313 313 313 313 312 313 312 313 313 313 313 312 312 310 309 307 308 308 309 311 312 313 314 312 312 312 312
301 302 304 303 303 304 306 307 309 311 310 308 308 309 313 314 313 313 314 314 314 314 313 313 314 314 314 312 311 310 309 308 308 309 308 308 312 313 313 313 312 310 309
302 301 301 302 302 304 305 305 306 307 309 309 308 307 309 314 314 314 314 314 314 314 314 313 313 314 314 314 312 310 309 309 309 309 309 309 312 313 313 311 308 307 306
302 301 300 301 302 302 303 305 304 305 306 307 307 307 306 309 311 314 314 315 314 315 315 315 313 314 314 314 311 310 309 309 309 310 311 312 312 312 310 308 307 307 306
302 302 299 300 300 300 299 302 301 301 302 303 303 304 305 306 309 311 313 314 315 314 313 315 314 313 314 313 312 311 310 310 311 311 311 311 310 310 308 308 308 308 307
301 301 299 299 299 299 300 300 301 301 301 301 302 303 304 306 307 309 311 313 314 315 313 315 314 314 313 313 312 312 311 311 311 310 311 311 310 309 308 308 308 308 308
300 300 299 299 299 299 300 300 299 300 300 300 302 303 304 305 305 307 308 310 312 313 315 316 315 314 314 314 314 313 313 312 311 311 311 312 310 309 309 309 309 309 308
301 300 299 300 300 299 300 299 299 300 301 300 301 301 302 303 303 304 305 308 309 310 312 313 315 316 315 315 315 314 314 314 313 313 312 312 311 310 310 310 310 310 309
301 301 301 300 300 300 300 300 299 299 301 302 303 304 304 305 306 306 307 306 309 309 311 312 312 313 314 316 316 315 315 314 313 313 312 312 312 311 311 311 311 311 310
303 302 301 301 301 301 301 302 301 301 300 299 303 304 304 305 306 307 307 306 307 310 310 311 311 313 314 315 315 315 315 314 313 313 312 311 312 311 311 310 310 311 311
Wind_Speed
15 17 14 12 13 13 13 13 11 11 9 10 8 7 6 8 8 9 9 9 7 7 10 10 10 16 17 18 6 10 5 5 12 13 12 15 19 26 22 24 24 22 19
15 16 20 17 15 15 16 16 13 13 11 11 10 8 7 6 6 6 7 6 7 8 9 10 11 9 12 13 23 10 5 5 17 17 19 14 17 21 23 21 18 15 13
15 16 19 21 16 16 18 14 15 14 12 13 11 6 6 4 2 3 5 5 6 8 10 11 13 11 12 11 13 15 13 13 10 20 21 17 16 17 18 16 15 14 10
18 15 19 19 16 17 18 14 15 13 13 11 7 5 4 3 3 2 2 4 5 6 8 11 12 13 11 11 11 14 15 16 16 20 15 16 12 14 12 14 13 12 12
19 18 17 17 16 18 13 10 12 11 12 9 7 7 5 6 4 4 3 1 3 4 7 8 10 12 12 11 10 10 9 11 15 17 15 13 12 13 13 11 11 11 11
27 18 15 17 20 16 13 11 13 13 11 8 7 9 6 5 9 5 1 2 2 2 3 4 6 9 9 10 9 9 10 9 11 12 11 12 12 10 10 9 10 9 9
26 24 19 19 18 19 12 11 13 11 11 8 8 10 8 7 9 8 6 3 2 2 2 3 3 6 8 5 7 8 7 7 6 5 8 9 10 8 9 8 6 6 3
24 28 19 15 12 16 12 12 13 13 14 11 9 10 10 8 8 6 6 6 5 1 1 2 1 2 6 6 3 4 5 5 6 5 4 4 4 4 6 4 5 6 5
22 23 25 12 9 15 13 11 12 13 13 11 9 9 10 11 10 9 8 6 6 4 3 3 0 1 2 5 3 2 2 2 1 2 2 2 3 5 5 3 1 4 6
21 21 20 16 13 16 18 14 13 11 12 12 10 9 10 10 10 13 13 9 8 8 6 5 3 4 4 1 3 1 2 3 3 3 4 3 2 5 7 8 3 5 4
20 19 18 17 15 13 18 23 19 14 15 14 12 11 10 10 10 10 10 12 10 9 8 8 6 4 5 4 1 2 1 1 3 3 4 5 5 5 5 6 6 6 5
20 18 16 16 14 15 13 11 21 16 17 16 15 12 11 11 9 8 10 12 12 9 9 8 9 8 8 8 5 3 3 3 1 3 4 5 5 5 6 8 9 9 8
20 19 17 14 14 15 12 9 10 16 14 16 15 14 14 15 10 9 7 6 11 12 8 10 10 8 10 11 11 9 7 4 3 6 6 6 6 7 9 6 8 10 11
20 20 18 14 14 13 13 10 10 9 13 12 15 16 14 14 13 9 7 7 10 12 14 13 12 10 8 11 13 12 12 9 8 8 8 7 7 7 6 8 8 7 7
18 18 17 14 14 13 12 12 10 12 15 15 16 14 13 13 13 13 11 8 7 9 11 11 11 10 9 9 10 10 10 11 12 13 12 11 10 10 10 10 11 10 11
17 17 16 15 13 12 12 11 10 8 9 11 8 18 13 16 14 13 15 14 9 10 9 10 11 12 13 12 12 12 12 12 14 14 15 14 13 13 13 13 13 13 13
17 17 14 14 13 13 11 13 11 8 8 8 8 3 22 19 16 17 18 15 15 14 13 12 11 11 11 12 13 13 13 12 13 15 16 16 15 14 13 14 14 14 15
18 16 16 15 13 13 13 13 12 9 8 8 10 8 8 16 16 17 18 18 16 18 16 15 16 13 12 12 11 12 12 13 13 14 15 16 16 14 14 13 14 15 15
16 17 18 17 12 10 10 10 10 9 9 9 12 10 11 7 17 15 16 17 17 19 17 16 16 13 15 13 13 12 14 13 13 13 13 14 14 15 15 14 13 13 14
13 17 20 15 14 11 10 10 10 10 8 9 8 11 10 8 2 11 13 15 16 15 13 12 15 14 13 14 13 11 11 11 11 12 13 13 14 15 14 13 12 11 10
13 13 17 13 13 13 12 11 11 10 9 9 9 9 6 9 5 7 13 12 16 21 17 13 16 13 15 15 15 12 11 12 12 12 13 13 13 15 14 13 13 11 10
13 13 14 14 11 12 12 11 10 10 10 10 10 8 9 5 8 8 10 13 12 13 20 16 16 15 16 15 15 15 14 14 14 14 14 14 15 15 15 15 14 14 13
14 13 13 12 10 12 11 11 10 10 10 9 8 7 5 6 6 7 9 10 14 15 12 14 18 16 15 14 16 17 16 16 15 15 15 14 15 16 16 16 16 15 15
14 14 13 10 11 10 11 11 12 13 10 9 8 8 8 9 9 8 8 7 12 12 17 17 14 16 17 17 16 17 16 15 15 16 18 18 16 16 16 15 15 16 16
11 13 13 11 11 10 10 11 13 15 14 11 10 8 8 8 8 8 8 10 10 12 15 14 18 18 17 17 18 18 19 17 20 15 17 19 21 20 20 18 18 17 17
12 12 13 11 10 11 11 11 11 12 13 14 12 10 10 9 7 6 6 6 9 9 12 15 17 16 16 16 17 22 23 24 22 20 19 17 21 23 24 24 23 23 23
Wind_Direction
273 280 278 281 268 279 273 279 291 293 303 306 308 324 294 295 297 316 333 336 334 353 360 2 24 38 63 53 99 170 169 160 175 160 167 165 174 154 143 141 140 145 148
289 271 268 268 272 274 278 274 286 282 289 310 295 299 305 292 285 316 341 24 14 19 16 14 30 42 56 72 76 115 146 150 168 133 155 133 120 133 136 136 136 134 154
293 290 285 263 255 274 275 278 276 279 278 311 295 281 303 282 268 318 12 41 34 28 25 22 34 47 65 82 101 100 109 106 159 136 155 123 116 121 124 126 131 150 153
306 291 288 260 251 268 273 279 275 267 270 281 283 256 285 249 235 322 348 14 32 36 34 34 39 44 57 73 95 101 111 107 115 133 115 117 123 126 132 137 142 149 164
314 291 286 262 247 279 266 260 269 264 262 262 266 250 245 237 229 261 291 320 20 33 49 46 42 49 51 61 86 100 124 127 108 102 116 137 144 147 152 155 158 163 175
338 313 282 272 250 266 273 266 260 256 263 270 261 249 224 220 229 248 234 352 80 25 34 44 40 41 41 56 76 91 102 123 130 149 148 151 150 155 156 164 158 172 166
334 335 306 276 289 252 269 253 250 269 256 263 250 243 223 218 236 240 263 198 199 320 330 35 57 43 53 51 67 84 95 103 120 115 131 151 164 170 173 160 162 178 194
338 339 329 298 258 242 279 253 251 254 256 250 242 231 226 212 221 230 214 209 246 246 277 303 328 58 45 60 93 104 106 102 109 119 113 129 145 145 134 156 162 188 215
337 338 338 311 255 255 284 273 255 241 247 260 246 226 219 223 221 229 239 236 242 233 221 272 312 272 346 24 64 159 160 132 207 196 189 195 199 192 167 142 193 197 193
333 339 339 339 269 256 264 285 257 246 248 246 257 247 232 225 234 229 236 232 236 232 220 243 259 294 230 334 50 90 163 218 202 234 232 222 189 176 170 165 192 197 203
329 330 337 337 326 324 268 257 259 260 249 242 243 250 234 232 227 237 236 225 229 231 226 222 229 232 211 228 85 95 179 211 253 204 218 212 206 218 217 215 215 205 233
327 325 330 335 334 326 308 288 258 252 256 257 246 247 230 227 232 241 241 242 224 224 232 227 235 239 235 236 235 256 352 6 188 200 194 200 214 223 232 233 237 231 240
329 326 324 327 334 338 335 306 262 278 269 250 243 235 230 227 221 229 247 280 228 223 216 231 230 256 240 236 243 263 270 288 241 224 221 225 236 223 215 240 254 252 250
323 322 324 326 332 333 338 334 336 304 270 270 244 245 228 229 234 227 231 256 214 217 219 228 241 248 248 225 246 259 254 245 243 237 232 230 229 226 235 231 237 254 263
332 325 320 324 324 328 325 327 335 352 305 301 260 236 233 229 233 235 207 201 211 217 221 220 237 234 238 241 240 241 246 250 244 235 232 234 238 242 244 244 247 253 260
336 330 325 323 318 313 315 317 323 332 354 272 302 238 233 228 226 228 227 228 227 227 215 230 238 240 241 243 244 247 251 250 238 237 235 237 241 246 250 250 249 256 262
339 341 326 318 309 315 311 315 317 331 345 337 314 248 223 230 230 231 226 227 230 237 232 242 240 241 243 248 247 248 251 251 246 238 238 238 242 249 250 249 253 259 264
2 357 346 333 321 305 310 308 316 317 341 354 340 340 227 231 229 226 221 223 231 234 232 243 245 241 247 248 249 252 252 252 244 240 238 235 236 244 246 249 257 264 263
356 357 349 347 344 339 324 331 343 348 353 355 354 314 334 200 222 228 224 220 230 235 233 236 250 244 250 245 251 258 253 244 241 241 236 228 234 241 244 251 260 264 260
347 344 351 350 353 350 349 354 350 345 338 339 347 335 327 340 233 222 239 228 230 244 247 230 244 242 249 247 250 258 246 237 234 233 231 237 241 238 241 248 253 262 259
340 347 347 349 350 349 345 341 329 336 329 327 319 320 317 304 307 245 226 228 236 240 228 245 242 249 251 245 244 249 242 238 238 236 237 241 240 238 240 242 249 255 253
352 346 347 349 352 352 354 353 347 344 337 330 328 328 338 338 301 280 258 236 234 237 228 242 243 248 248 244 243 246 245 244 243 240 243 246 244 241 240 244 249 251 252
353 354 357 351 357 354 356 351 348 345 340 342 335 330 315 298 286 280 274 262 252 240 233 236 240 248 249 245 244 243 246 246 246 244 246 249 248 241 241 246 248 250 251
349 355 354 353 352 356 355 353 350 352 351 343 332 325 320 312 306 293 283 277 273 258 251 248 247 246 243 249 247 241 244 249 251 249 248 249 249 240 241 247 248 249 250
331 337 349 346 348 350 352 345 351 8 9 355 348 341 336 320 310 303 282 243 233 253 248 263 256 257 247 251 248 245 250 247 246 250 244 247 247 247 248 251 253 254 252
314 322 332 337 332 336 339 339 345 336 343 359 0 354 355 352 337 316 306 274 250 258 265 254 246 251 249 244 247 242 245 245 248 248 252 245 243 248 250 252 253 257 258